Location: Amsterdam
(30.7274°N, 84.4357°W)
Time: 17:29:50
(UTC+00:00)

Transit 2A Rocket - Pass Details

Date: 22 February 2026
Orbit: 583 x 900 km, 66.7° (Epoch: 12 March)

Event Time Altitude Azimuth Distance (km) Brightness Sun altitude
Rises 18:53:54 0° 173° (S) 3,417 8.9 46.6°
Reaches altitude 10° 18:56:43 10° 161° (SSE) 2,517 8.3 46.4°
Maximum altitude 19:01:30 26° 106° (ESE) 1,677 7.0 45.9°
Drops below altitude 10° 19:06:22 10° 52° (NE) 2,574 7.4 45.5°
Sets 19:09:16 0° 40° (NE) 3,511 8.0 45.2°
